Probability
0 0 0 0 0 0 0 0 0 0 0 0 0 0 0 0 0 0 0 0 1 4 6 6 7 7 5 2 1 0 0 0 0 0 0 0 0 0 0 0 0 0 0 0 0 0 0 0 0
0 0 0 0 0 0 0 0 0 0 0 0 0 0 0 0 0 0 0 0 1 4 6 6 7 7 4 1 0 0 0 0 0 0 0 0 0 0 0 0 0 0 0 0 0 0 0 0 0
0 0 0 0 0 0 0 0 0 0 0 0 0 0 0 0 0 0 0 0 2 4 6 7 7 6 4 1 0 0 0 0 0 0 0 0 0 0 0 0 0 0 0 0 0 0 0 0 0
0 0 0 0 0 0 0 0 0 0 0 0 0 0 0 0 0 0 0 1 3 4 6 7 7 5 4 2 1 0 0 0 0 0 0 0 0 0 0 0 0 0 0 0 1 1 0 0 0
0 0 0 0 0 0 0 0 0 0 0 0 0 0 0 0 0 0 1 3 4 4 7 8 8 7 6 4 2 0 0 0 1 1 0 0 0 0 0 0 0 0 0 1 2 1 0 0 0
0 0 0 0 0 0 0 0 0 0 0 0 0 0 0 0 0 0 1 3 4 5 8 9 9 8 7 5 2 1 0 1 2 2 1 0 1 1 0 0 0 0 0 1 2 1 0 0 0
0 0 0 0 0 0 0 0 0 0 0 0 0 0 0 0 0 0 1 3 4 5 7 9 9 7 6 4 3 2 1 2 3 2 1 0 1 1 1 1 0 0 0 1 1 0 0 0 0
0 0 0 0 0 0 0 0 0 0 0 0 0 0 0 0 0 0 1 4 5 5 7 9 9 8 6 5 3 2 2 2 2 1 0 0 1 1 0 0 0 0 0 0 0 0 0 0 0
0 0 0 0 0 0 0 0 0 0 0 0 0 0 0 0 0 0 2 4 6 7 8 10 11 10 8 5 3 3 2 2 1 0 0 0 0 0 0 0 0 0 0 0 0 0 0 0 0
0 0 0 0 0 0 0 0 0 0 0 0 0 0 0 0 0 0 1 2 5 7 8 8 9 9 7 5 4 3 3 2 1 1 0 0 0 0 0 0 0 0 0 0 0 0 0 0 0
0 0 0 0 0 0 0 0 0 0 0 0 0 0 0 0 0 0 0 1 4 6 6 6 6 6 5 4 5 5 4 3 3 2 1 1 2 2 1 0 0 0 0 0 0 0 0 0 0
0 0 0 0 0 0 0 0 0 0 0 0 0 0 0 0 0 0 0 1 2 3 3 4 5 5 4 4 5 6 4 3 3 3 3 4 5 3 1 0 0 0 0 0 1 1 0 0 0
0 0 0 0 0 0 0 0 0 0 0 0 0 0 0 0 0 0 0 0 1 1 1 3 6 6 5 4 4 4 2 2 2 3 3 5 6 5 3 1 0 0 0 1 2 2 1 0 0
0 0 0 0 0 0 0 0 0 0 0 0 0 0 0 0 0 0 0 0 0 0 1 3 5 6 6 4 3 2 1 1 1 1 2 4 6 5 4 2 1 0 0 0 1 2 1 0 0
0 0 0 0 0 0 0 0 0 0 0 0 0 0 0 0 0 0 0 0 0 0 1 2 4 5 5 4 3 2 1 0 0 0 0 2 3 4 3 3 2 1 0 0 0 0 0 0 0
0 0 0 0 0 0 0 0 0 0 0 0 0 0 0 0 0 0 0 0 0 0 0 1 2 4 4 3 3 2 1 0 0 0 0 0 1 1 1 2 2 2 1 0 0 0 0 0 0
0 0 0 0 0 0 0 0 0 0 0 0 0 0 0 0 0 0 0 0 0 0 0 0 1 2 3 4 4 3 1 0 0 0 0 0 0 0 0 1 1 1 1 0 0 0 0 0 1
0 0 0 0 0 0 0 0 0 0 0 0 0 0 0 0 0 0 0 0 0 0 0 0 0 1 2 4 5 4 3 1 1 1 0 0 0 0 0 0 0 0 0 0 0 0 0 0 1
0 0 0 0 0 0 0 0 0 0 0 0 0 0 0 0 0 0 0 0 0 0 0 0 1 1 1 2 3 4 3 3 2 2 1 0 0 0 0 0 0 0 0 0 0 0 0 0 1
0 0 0 0 0 0 0 0 0 0 0 0 0 0 0 0 0 0 0 0 0 0 0 0 1 1 1 1 1 2 4 4 2 2 2 1 0 0 0 0 0 0 0 0 0 0 0 0 0
0 0 0 0 0 0 0 0 0 0 0 0 0 0 0 0 0 0 0 0 0 0 0 0 1 1 1 1 0 1 3 3 2 2 2 1 0 0 0 0 0 0 0 0 0 0 0 0 0
0 0 0 0 0 0 0 0 0 0 0 0 0 0 0 0 0 0 0 0 0 0 0 0 0 0 1 1 1 1 1 1 1 2 2 1 1 0 0 0 0 0 0 0 0 0 0 0 0
0 0 0 0 0 0 0 0 0 0 0 0 0 0 0 0 0 0 0 0 0 0 0 0 0 0 0 1 1 0 0 0 1 2 3 3 2 1 1 1 1 1 1 0 0 0 0 0 0
0 0 0 0 0 0 0 0 0 0 0 0 0 0 0 0 0 0 0 0 0 0 0 0 0 0 0 0 0 0 0 0 1 1 2 3 3 3 2 2 2 2 2 1 0 0 0 0 0
0 0 0 0 0 0 0 0 0 0 0 0 0 0 0 0 0 0 0 0 0 0 0 0 0 0 0 0 0 0 0 0 0 0 1 2 2 2 2 3 3 3 3 1 1 0 0 0 0
0 0 0 0 0 0 0 0 0 0 0 0 0 0 0 0 0 0 0 0 0 0 0 0 0 0 0 0 0 0 0 0 0 0 0 1 1 1 1 1 2 3 3 3 2 1 0 0 0
0 0 0 0 0 0 0 0 0 0 0 0 0 0 0 0 0 0 0 0 0 0 0 0 0 0 0 0 0 0 0 0 0 0 0 0 0 0 0 0 1 2 3 3 2 1 0 0 0
0 0 0 0 0 0 0 0 0 0 0 0 0 0 0 0 0 0 0 0 0 0 0 0 0 0 0 0 0 0 0 0 0 0 0 0 0 0 0 0 0 1 1 2 2 1 0 0 0
0 0 0 0 0 0 0 0 0 0 0 0 0 0 0 0 0 0 0 0 0 0 0 0 0 0 0 0 0 0 0 0 0 0 0 0 0 0 0 0 0 0 0 1 1 0 0 0 0
0 0 0 0 0 0 0 0 0 0 0 0 0 0 0 0 0 0 0 0 0 0 0 0 0 0 0 0 0 0 0 0 0 0 0 0 0 0 0 0 0 0 0 0 0 0 0 0 0
Wind_Speed
1 1 3 3 5 6 9 6 4 5 4 1 1 2 2 2 1 2 5 3 3 5 5 5 5 7 8 8 8 8 9 9 9 10 11 11 11 11 11 11 11 11 11 12 12 12 13 13 13
1 2 3 4 7 9 7 7 8 5 3 3 2 2 2 1 3 4 3 2 4 5 5 5 6 8 8 9 9 9 9 9 9 10 10 10 11 11 11 11 11 11 11 11 12 12 12 12 12
2 2 4 4 8 9 6 4 5 3 3 3 3 1 1 2 3 2 3 3 5 5 5 5 7 8 8 9 9 9 9 10 9 9 10 10 10 11 11 11 11 11 11 11 11 12 12 12 12
3 3 3 6 11 9 6 3 4 5 4 2 3 3 2 3 2 2 4 5 6 6 5 6 7 8 8 9 9 9 9 9 9 9 9 10 10 10 10 11 11 11 11 11 11 11 11 11 11
2 4 6 8 11 7 5 3 4 5 4 4 4 3 3 3 3 3 5 5 6 6 5 6 7 7 8 8 9 9 9 9 9 9 9 9 9 9 10 10 10 10 10 11 11 11 11 11 11
4 4 8 11 12 7 5 5 5 6 4 4 4 3 4 4 3 4 5 5 5 6 5 5 6 7 8 8 8 9 9 9 9 9 9 8 9 9 9 9 9 9 10 10 10 10 10 11 10
5 5 8 10 10 9 6 5 6 6 6 4 3 4 5 4 3 4 5 5 5 5 5 5 5 6 7 8 8 8 9 9 9 9 9 9 9 9 9 9 8 9 9 9 9 10 10 10 10
3 4 7 9 10 10 5 5 2 5 4 2 2 4 3 4 5 5 5 5 5 5 5 5 5 5 5 6 8 8 9 10 9 9 9 8 8 8 8 8 8 8 8 8 9 9 9 10 10
4 7 10 10 8 6 6 6 3 1 3 3 1 2 4 7 8 7 6 5 5 4 4 4 4 4 4 5 6 7 8 9 8 8 8 6 5 5 5 7 7 7 7 8 8 9 9 8 8
6 9 10 5 4 3 5 5 5 5 5 4 3 3 5 8 8 8 7 7 6 5 4 3 4 4 4 4 4 4 4 4 4 4 4 3 4 4 5 8 8 7 7 7 8 8 7 4 4
6 8 6 4 2 2 4 4 4 6 6 5 5 6 8 9 8 8 7 6 6 5 4 3 4 4 4 3 3 2 2 3 3 4 4 3 4 3 3 3 3 4 4 4 4 4 3 3 3
5 5 4 3 2 3 4 4 4 5 3 1 2 6 9 10 9 8 7 6 5 5 4 3 4 4 4 3 3 3 3 2 2 3 3 3 2 3 3 2 3 2 2 2 2 2 3 3 3
7 4 3 2 2 2 2 4 3 4 2 1 3 6 8 9 8 7 6 6 5 5 4 3 4 4 4 3 3 3 3 3 3 2 3 3 2 2 3 2 2 2 2 2 2 2 3 3 3
4 4 3 2 3 3 4 4 4 5 2 3 4 6 7 8 8 7 6 6 6 5 5 4 3 4 4 4 3 3 3 3 3 3 3 3 2 2 2 2 2 2 2 2 2 2 2 2 2
3 3 4 4 4 3 4 7 7 4 4 5 5 5 6 6 7 7 7 7 6 6 5 5 4 4 5 4 4 3 3 3 3 3 3 3 3 3 2 2 2 2 2 2 2 2 2 2 2
4 6 7 4 4 3 7 10 4 3 6 6 6 5 6 6 7 6 6 6 6 6 6 5 4 4 4 4 4 3 3 3 3 2 3 3 3 3 2 2 2 2 2 1 1 1 1 1 1
6 7 8 5 4 4 7 8 2 3 5 6 5 5 5 5 6 6 6 6 6 6 6 6 5 5 4 4 3 3 3 3 3 2 2 3 3 3 2 2 2 2 2 1 1 1 1 1 1
7 8 8 7 3 5 8 9 5 4 6 6 5 5 5 6 6 5 6 6 6 6 6 6 5 5 4 3 3 3 3 3 3 3 2 3 2 3 2 2 2 2 2 2 1 1 1 1 1
5 7 8 4 2 5 9 11 10 6 6 7 6 5 5 6 4 4 5 6 6 6 6 6 6 5 4 3 3 3 3 3 3 3 3 4 3 3 2 2 2 2 2 2 2 2 2 1 1
6 8 7 3 1 4 7 12 9 7 6 6 5 5 5 4 3 3 4 5 6 7 7 6 6 6 5 4 3 2 3 3 3 3 3 4 4 3 3 2 2 2 2 2 2 2 2 1 1
6 8 7 4 2 3 6 9 7 4 4 4 4 4 4 4 4 3 3 4 5 6 6 6 6 6 6 5 3 2 2 2 3 4 4 4 4 4 4 4 3 3 3 3 3 3 3 2 2
6 4 4 3 4 4 3 7 4 4 4 3 3 3 3 3 3 2 2 3 4 5 5 6 6 6 5 5 5 5 4 4 4 4 4 4 5 5 4 5 4 4 3 4 4 4 3 3 3
2 0 2 3 5 5 5 7 5 2 4 3 2 2 2 2 2 2 2 2 3 3 4 5 5 5 5 5 6 6 5 5 3 4 5 5 5 5 5 5 5 5 4 4 4 4 5 4 4
3 2 2 2 3 7 6 8 6 2 2 1 2 2 2 2 2 2 2 2 2 2 2 3 5 5 5 6 6 6 6 6 5 5 5 5 4 4 6 6 6 6 5 5 5 5 6 5 5
3 3 2 4 5 6 3 6 6 2 1 1 1 2 2 2 2 2 2 2 2 2 2 3 4 5 5 6 6 6 7 6 7 6 6 5 4 5 6 6 6 6 6 6 6 6 6 6 6
6 5 5 5 5 2 4 7 2 3 1 1 1 2 2 3 3 3 3 3 3 3 3 3 4 5 5 6 6 6 6 5 5 6 5 6 5 6 6 7 7 7 7 7 7 6 7 6 7
5 5 2 2 2 5 5 4 4 1 0 1 2 2 2 3 4 4 4 4 4 3 3 4 4 5 5 5 6 6 6 6 6 6 6 6 6 5 7 8 8 8 8 8 7 6 7 7 7
2 3 3 4 5 7 6 6 3 1 1 1 1 2 3 4 4 4 4 5 5 4 4 4 4 5 5 5 5 5 6 6 7 6 7 7 7 6 7 8 8 8 8 8 8 8 8 8 8
4 4 4 4 4 6 7 3 1 1 1 2 2 2 3 4 4 4 4 5 5 5 4 4 4 4 4 4 5 5 6 6 6 7 7 7 7 7 7 8 8 9 9 9 9 9 9 10 9
3 5 6 5 5 6 7 3 3 2 2 2 3 3 4 4 4 5 5 5 5 5 5 5 4 4 4 4 4 5 5 5 6 7 7 7 7 7 8 8 9 9 9 10 10 10 10 10 11
Wind_Direction
293 225 212 211 207 220 229 212 203 178 183 170 134 207 214 217 275 59 76 107 122 140 140 135 103 100 100 101 100 94 94 95 93 93 92 89 87 87 86 86 85 85 86 85 85 83 82 83 82
219 200 204 213 225 221 220 212 207 204 134 134 156 202 196 160 36 70 110 110 136 137 137 129 102 103 99 96 100 98 94 95 94 93 93 91 88 85 84 83 83 83 85 84 84 82 82 82 82
168 228 211 207 225 231 215 185 199 162 144 177 164 206 274 78 95 106 88 135 143 135 132 116 104 106 103 99 96 94 92 92 95 95 93 92 89 85 83 83 81 79 78 80 84 84 82 82 82
191 182 205 227 226 232 238 178 161 165 166 190 187 161 129 50 47 80 111 142 139 131 127 118 106 107 104 102 98 94 91 89 91 92 93 93 91 87 83 80 79 77 76 78 81 83 83 83 82
214 202 205 223 233 230 229 226 195 202 185 179 197 190 142 98 66 98 132 140 134 127 123 120 107 111 110 105 100 97 93 90 89 89 91 94 93 90 85 80 78 78 78 79 80 82 82 82 83
188 210 218 225 226 223 222 215 206 218 203 179 197 197 131 99 106 121 134 133 128 124 121 116 107 101 105 105 102 99 96 90 87 86 85 85 89 92 88 84 82 81 80 80 81 82 84 82 79
209 212 230 232 231 227 215 194 211 217 212 194 199 190 143 131 116 133 137 129 120 119 119 116 117 111 98 91 92 95 95 89 85 83 80 77 77 83 87 85 83 83 82 80 81 82 83 83 79
230 217 226 226 227 230 188 175 208 227 216 111 203 211 146 140 137 137 133 129 121 117 118 115 111 113 117 109 89 86 85 80 79 75 72 74 77 80 79 85 82 82 82 81 81 83 83 81 79
212 223 227 222 223 219 176 185 169 200 157 149 143 19 59 127 141 141 139 140 135 125 123 121 114 111 110 108 97 92 85 77 78 77 72 77 92 91 85 70 73 78 80 80 80 81 81 81 79
209 226 232 235 233 207 178 195 169 177 189 192 173 119 119 143 155 158 160 161 160 151 142 133 125 119 117 108 113 108 99 95 92 93 92 87 81 72 72 68 64 69 76 82 79 80 84 83 88
210 233 231 221 218 200 188 187 185 200 214 216 207 170 155 161 168 173 175 173 170 163 153 147 136 128 121 115 111 104 95 93 92 91 92 92 88 85 77 82 79 76 77 85 87 89 79 75 77
210 231 234 222 192 199 200 180 186 220 244 32 192 158 162 173 180 183 181 178 172 167 163 158 148 139 130 120 117 112 108 99 94 90 91 96 95 89 83 78 72 69 67 74 82 84 84 82 81
219 222 221 213 175 182 185 206 215 224 231 113 127 153 173 182 187 188 184 178 176 173 165 165 162 152 144 133 123 118 115 112 105 95 92 88 96 95 89 87 77 68 68 73 75 84 91 90 84
209 207 214 215 205 207 216 229 227 238 200 175 171 180 187 191 192 188 189 189 187 182 174 169 169 165 156 148 138 130 125 119 116 108 99 98 93 95 95 89 84 75 65 64 73 79 89 95 87
174 203 225 221 216 201 212 233 228 226 192 199 204 203 200 202 198 199 199 197 194 189 182 179 174 168 167 159 151 140 135 134 126 120 116 110 103 106 106 104 94 82 75 77 81 85 82 87 92
189 216 233 206 203 201 227 246 204 186 202 218 220 217 213 212 213 214 209 204 198 190 186 181 176 173 174 167 161 150 146 144 135 130 131 126 120 114 112 109 105 95 100 92 89 101 101 97 93
202 229 237 216 194 205 226 254 215 186 214 228 230 226 223 225 224 222 215 210 203 197 190 185 180 178 176 175 169 156 153 154 149 142 140 142 137 133 126 116 111 124 115 107 95 107 124 128 104
216 229 237 234 184 214 231 251 253 221 228 240 238 232 228 231 233 223 212 209 206 200 196 193 186 183 180 177 172 164 161 162 158 157 153 155 152 149 144 141 129 125 133 129 126 123 118 142 134
241 238 244 245 185 232 242 256 258 246 241 248 247 242 239 243 242 225 211 203 201 201 199 198 193 186 181 182 190 184 181 176 173 171 168 169 163 155 154 156 154 157 156 155 150 150 148 139 153
235 244 251 254 234 251 266 266 259 244 240 244 251 254 258 262 249 231 214 203 203 202 202 201 199 196 195 200 200 214 187 190 186 181 183 183 180 173 178 177 180 177 172 170 167 162 177 177 199
235 245 254 261 275 231 281 264 232 227 236 243 254 261 266 268 262 248 229 214 209 208 209 209 206 201 201 199 189 186 185 184 191 190 190 193 193 190 190 194 198 195 189 190 193 191 195 201 210
246 249 252 247 250 255 255 276 228 226 248 243 255 265 275 282 277 266 246 233 227 221 215 217 212 206 202 197 200 201 211 208 206 200 197 197 203 203 200 199 206 209 210 204 206 207 218 214 210
242 160 228 236 242 262 225 255 264 197 250 251 262 276 300 315 313 295 281 254 244 238 225 221 215 210 204 203 207 212 221 220 209 204 205 206 207 211 209 208 206 211 217 215 214 218 224 222 225
134 136 124 191 223 248 226 234 266 204 242 280 262 286 328 339 342 335 329 300 266 247 231 230 218 214 207 208 212 217 224 224 213 211 212 213 212 215 217 215 215 214 217 218 218 220 227 231 232
186 198 229 221 222 241 164 231 258 41 19 305 297 320 339 350 350 349 346 333 303 270 256 237 231 225 217 215 218 222 227 230 222 219 220 221 221 221 219 218 221 221 219 219 219 220 224 228 230
201 217 230 252 258 255 191 235 237 61 52 12 4 4 4 4 2 356 343 328 318 300 284 264 244 241 230 225 227 228 229 234 233 227 229 229 229 229 226 223 224 228 225 222 219 222 225 226 229
190 215 257 267 280 266 236 246 256 97 30 24 21 23 7 357 350 346 342 335 324 309 298 285 267 255 243 235 234 234 233 236 241 235 234 234 236 235 228 226 227 227 226 225 222 224 225 226 227
259 166 179 216 245 253 250 239 236 224 258 347 334 329 335 342 344 341 338 334 331 321 308 297 282 271 256 243 240 241 239 240 246 239 236 237 239 236 232 230 228 226 225 225 224 226 226 226 228
172 187 213 220 245 255 262 242 83 256 302 268 285 309 326 333 332 333 333 332 329 330 324 310 299 292 280 259 248 247 247 246 248 242 240 241 240 237 234 231 229 227 225 222 224 227 225 226 228
227 214 202 220 227 236 264 266 80 13 342 312 313 322 326 327 330 333 332 332 331 331 332 326 313 302 297 285 264 254 255 251 252 248 244 244 243 242 239 237 234 231 229 226 224 226 227 227 228